Retour au catalogue

COSMOS 2417

GLONASS

ActifNavigationMEO
NORAD 28917·PAYLOAD·🇷🇺 Russia

Lancé Dec 25, 2005 depuis Baikonur Cosmodrome

Loading…

Prochains Passages (prochaines 24 heures)

TLE

FraisSource: Space-Track

Époque: Sep 9, 2026, 12:59 UTC

1 28917U 05050C   26252.54111478 -.00000033  00000-0  00000-0 0  9992
2 28917  65.5213 313.2954 0014615  97.7497 261.6515  2.13104580161028

Suivez COSMOS 2417 en temps réel avec AllMySat

Download on the App Store